Year,Month,Day,Hour,Minute,Value (Times are PST for temperature in C)
2015,06,24,00,00,15.90
2015,06,24,00,01,15.90
2015,06,24,00,02,15.90
2015,06,24,00,03,15.90
2015,06,24,00,04,15.90
2015,06,24,00,05,15.90
2015,06,24,00,06,15.90
2015,06,24,00,07,15.90
2015,06,24,00,08,15.90
2015,06,24,00,09,16.00
2015,06,24,00,10,16.00
2015,06,24,00,11,16.10
2015,06,24,00,12,16.10
2015,06,24,00,13,16.10
2015,06,24,00,14,16.10
2015,06,24,00,15,16.10
2015,06,24,00,16,16.10
2015,06,24,00,17,16.20
2015,06,24,00,18,16.20
2015,06,24,00,19,16.30
2015,06,24,00,20,16.30
2015,06,24,00,21,16.30
2015,06,24,00,22,16.30
2015,06,24,00,23,16.30
2015,06,24,00,24,16.40
2015,06,24,00,25,16.40
2015,06,24,00,26,16.40
2015,06,24,00,27,16.40
2015,06,24,00,28,16.40
2015,06,24,00,29,16.40
2015,06,24,00,30,16.40
2015,06,24,00,31,16.40
2015,06,24,00,32,16.40
2015,06,24,00,33,16.30
2015,06,24,00,34,16.30
2015,06,24,00,35,16.40
2015,06,24,00,36,16.40
2015,06,24,00,37,16.40
2015,06,24,00,38,16.40
2015,06,24,00,39,16.40
2015,06,24,00,40,16.40
2015,06,24,00,41,16.40
2015,06,24,00,42,16.50
2015,06,24,00,43,16.50
2015,06,24,00,44,16.50
2015,06,24,00,45,16.50
2015,06,24,00,46,16.50
2015,06,24,00,47,16.50
2015,06,24,00,48,16.50
2015,06,24,00,49,16.50
2015,06,24,00,50,16.50
2015,06,24,00,51,16.50
2015,06,24,00,52,16.40
2015,06,24,00,53,16.40
2015,06,24,00,54,16.40
2015,06,24,00,55,16.40
2015,06,24,00,56,16.50
2015,06,24,00,57,16.50
2015,06,24,00,58,16.50
2015,06,24,00,59,16.50
2015,06,24,01,00,16.60
2015,06,24,01,01,16.60
2015,06,24,01,02,16.60
2015,06,24,01,03,16.60
2015,06,24,01,04,16.60
2015,06,24,01,05,16.70
2015,06,24,01,06,16.70
2015,06,24,01,07,16.70
2015,06,24,01,08,16.70
2015,06,24,01,09,16.70
2015,06,24,01,10,16.70
2015,06,24,01,11,16.70
2015,06,24,01,12,16.70
2015,06,24,01,13,16.70
2015,06,24,01,14,16.70
2015,06,24,01,15,16.70
2015,06,24,01,16,16.70
2015,06,24,01,17,16.70
2015,06,24,01,18,16.70
2015,06,24,01,19,16.70
2015,06,24,01,20,16.70
2015,06,24,01,21,16.70
2015,06,24,01,22,16.70
2015,06,24,01,23,16.70
2015,06,24,01,24,16.70
2015,06,24,01,25,16.70
2015,06,24,01,26,16.70
2015,06,24,01,27,16.70
2015,06,24,01,28,16.70
2015,06,24,01,29,16.60
2015,06,24,01,30,16.60
2015,06,24,01,31,16.60
2015,06,24,01,32,16.60
2015,06,24,01,33,16.60
2015,06,24,01,34,16.50
2015,06,24,01,35,16.50
2015,06,24,01,36,16.50
2015,06,24,01,37,16.50
2015,06,24,01,38,16.50
2015,06,24,01,39,16.50
2015,06,24,01,40,16.50
2015,06,24,01,41,16.50
2015,06,24,01,42,16.60
2015,06,24,01,43,16.70
2015,06,24,01,44,16.90
2015,06,24,01,45,17.10
2015,06,24,01,46,17.30
2015,06,24,01,47,17.50
2015,06,24,01,48,17.70
2015,06,24,01,49,17.90
2015,06,24,01,50,18.00
2015,06,24,01,51,18.20
2015,06,24,01,52,18.30
2015,06,24,01,53,18.40
2015,06,24,01,54,18.50
2015,06,24,01,55,18.60
2015,06,24,01,56,18.60
2015,06,24,01,57,18.70
2015,06,24,01,58,18.70
2015,06,24,01,59,18.70
2015,06,24,02,00,18.70
2015,06,24,02,01,18.70
2015,06,24,02,02,18.80
2015,06,24,02,03,18.80
2015,06,24,02,04,18.80
2015,06,24,02,05,18.80
2015,06,24,02,06,18.80
2015,06,24,02,07,18.80
2015,06,24,02,08,18.80
2015,06,24,02,09,18.80
2015,06,24,02,10,18.80
2015,06,24,02,11,18.80
2015,06,24,02,12,18.80
2015,06,24,02,13,18.80
2015,06,24,02,14,18.80
2015,06,24,02,15,18.80
2015,06,24,02,16,18.80
2015,06,24,02,17,18.80
2015,06,24,02,18,18.80
2015,06,24,02,19,18.80
2015,06,24,02,20,18.80
2015,06,24,02,21,18.80
2015,06,24,02,22,18.80
2015,06,24,02,23,18.80
2015,06,24,02,24,18.80
2015,06,24,02,25,18.80
2015,06,24,02,26,18.80
2015,06,24,02,27,18.80
2015,06,24,02,28,18.80
2015,06,24,02,29,18.80
2015,06,24,02,30,18.80
2015,06,24,02,31,18.80
2015,06,24,02,32,18.80
2015,06,24,02,33,18.80
2015,06,24,02,34,18.80
2015,06,24,02,35,18.80
2015,06,24,02,36,18.80
2015,06,24,02,37,18.80
2015,06,24,02,38,18.80
2015,06,24,02,39,18.80
2015,06,24,02,40,18.80
2015,06,24,02,41,18.80
2015,06,24,02,42,18.80
2015,06,24,02,43,18.80
2015,06,24,02,44,18.80
2015,06,24,02,45,18.80
2015,06,24,02,46,18.80
2015,06,24,02,47,18.80
2015,06,24,02,48,18.80
2015,06,24,02,49,18.80
2015,06,24,02,50,18.80
2015,06,24,02,51,18.80
2015,06,24,02,52,18.80
2015,06,24,02,53,18.80
2015,06,24,02,54,18.80
2015,06,24,02,55,18.80
2015,06,24,02,56,18.80
2015,06,24,02,57,18.70
2015,06,24,02,58,18.70
2015,06,24,02,59,18.70
2015,06,24,03,00,18.70
2015,06,24,03,01,18.70
2015,06,24,03,02,18.70
2015,06,24,03,03,18.70
2015,06,24,03,04,18.70
2015,06,24,03,05,18.70
2015,06,24,03,06,18.70
2015,06,24,03,07,18.70
2015,06,24,03,08,18.70
2015,06,24,03,09,18.70
2015,06,24,03,10,18.70
2015,06,24,03,11,18.70
2015,06,24,03,12,18.70
2015,06,24,03,13,18.70
2015,06,24,03,14,18.70
2015,06,24,03,15,18.70
2015,06,24,03,16,18.70
2015,06,24,03,17,18.70
2015,06,24,03,18,18.70
2015,06,24,03,19,18.70
2015,06,24,03,20,18.70
2015,06,24,03,21,18.70
2015,06,24,03,22,18.70
2015,06,24,03,23,18.70
2015,06,24,03,24,18.70
2015,06,24,03,25,18.70
2015,06,24,03,26,18.70
2015,06,24,03,27,18.70
2015,06,24,03,28,18.70
2015,06,24,03,29,18.70
2015,06,24,03,30,18.60
2015,06,24,03,31,18.60
2015,06,24,03,32,18.60
2015,06,24,03,33,18.60
2015,06,24,03,34,18.60
2015,06,24,03,35,18.60
2015,06,24,03,36,18.60
2015,06,24,03,37,18.60
2015,06,24,03,38,18.60
2015,06,24,03,39,18.60
2015,06,24,03,40,18.60
2015,06,24,03,41,18.60
2015,06,24,03,42,18.60
2015,06,24,03,43,18.60
2015,06,24,03,44,18.60
2015,06,24,03,45,18.60
2015,06,24,03,46,18.60
2015,06,24,03,47,18.60
2015,06,24,03,48,18.60
2015,06,24,03,49,18.60
2015,06,24,03,50,18.60
2015,06,24,03,51,18.60
2015,06,24,03,52,18.60
2015,06,24,03,53,18.50
2015,06,24,03,54,18.50
2015,06,24,03,55,18.50
2015,06,24,03,56,18.50
2015,06,24,03,57,18.50
2015,06,24,03,58,18.50
2015,06,24,03,59,18.50
2015,06,24,04,00,18.50
2015,06,24,04,01,18.50
2015,06,24,04,02,18.40
2015,06,24,04,03,18.40
2015,06,24,04,04,18.40
2015,06,24,04,05,18.40
2015,06,24,04,06,18.40
2015,06,24,04,07,18.40
2015,06,24,04,08,18.40
2015,06,24,04,09,18.40
2015,06,24,04,10,18.40
2015,06,24,04,11,18.40
2015,06,24,04,12,18.40
2015,06,24,04,13,18.40
2015,06,24,04,14,18.40
2015,06,24,04,15,18.40
2015,06,24,04,16,18.40
2015,06,24,04,17,18.30
2015,06,24,04,18,18.30
2015,06,24,04,19,18.30
2015,06,24,04,20,18.30
2015,06,24,04,21,18.30
2015,06,24,04,22,18.30
2015,06,24,04,23,18.30
2015,06,24,04,24,18.30
2015,06,24,04,25,18.30
2015,06,24,04,26,18.30
2015,06,24,04,27,18.30
2015,06,24,04,28,18.30
2015,06,24,04,29,18.30
2015,06,24,04,30,18.30
2015,06,24,04,31,18.30
2015,06,24,04,32,18.30
2015,06,24,04,33,18.30
2015,06,24,04,34,18.20
2015,06,24,04,35,18.20
2015,06,24,04,36,18.20
2015,06,24,04,37,18.20
2015,06,24,04,38,18.20
2015,06,24,04,39,18.20
2015,06,24,04,40,18.30
2015,06,24,04,41,18.20
2015,06,24,04,42,18.20
2015,06,24,04,43,18.20
2015,06,24,04,44,18.20
2015,06,24,04,45,18.20
2015,06,24,04,46,18.20
2015,06,24,04,47,18.20
2015,06,24,04,48,18.20
2015,06,24,04,49,18.20
2015,06,24,04,50,18.20
2015,06,24,04,51,18.20
2015,06,24,04,52,18.20
2015,06,24,04,53,18.20
2015,06,24,04,54,18.20
2015,06,24,04,55,18.20
2015,06,24,04,56,18.20
2015,06,24,04,57,18.20
2015,06,24,04,58,18.20
2015,06,24,04,59,18.20
2015,06,24,05,00,18.20
2015,06,24,05,01,18.20
2015,06,24,05,02,18.20
2015,06,24,05,03,18.20
2015,06,24,05,04,18.20
2015,06,24,05,05,18.20
2015,06,24,05,06,18.20
2015,06,24,05,07,18.20
2015,06,24,05,08,18.20
2015,06,24,05,09,18.20
2015,06,24,05,10,18.20
2015,06,24,05,11,18.20
2015,06,24,05,12,18.20
2015,06,24,05,13,18.20
2015,06,24,05,14,18.20
2015,06,24,05,15,18.20
2015,06,24,05,16,18.10
2015,06,24,05,17,18.10
2015,06,24,05,18,18.10
2015,06,24,05,19,18.10
2015,06,24,05,20,18.10
2015,06,24,05,21,18.10
2015,06,24,05,22,18.10
2015,06,24,05,23,18.10
2015,06,24,05,24,18.10
2015,06,24,05,25,18.10
2015,06,24,05,26,18.00
2015,06,24,05,27,18.00
2015,06,24,05,28,18.00
2015,06,24,05,29,18.00
2015,06,24,05,30,17.90
2015,06,24,05,31,17.90
2015,06,24,05,32,17.90
2015,06,24,05,33,17.80
2015,06,24,05,34,17.80
2015,06,24,05,35,17.70
2015,06,24,05,36,17.60
2015,06,24,05,37,17.60
2015,06,24,05,38,17.50
2015,06,24,05,39,17.40
2015,06,24,05,40,17.40
2015,06,24,05,41,17.40
2015,06,24,05,42,17.40
2015,06,24,05,43,17.40
2015,06,24,05,44,17.40
2015,06,24,05,45,17.40
2015,06,24,05,46,17.40
2015,06,24,05,47,17.40
2015,06,24,05,48,17.40
2015,06,24,05,49,17.40
2015,06,24,05,50,17.40
2015,06,24,05,51,17.40
2015,06,24,05,52,17.40
2015,06,24,05,53,17.40
2015,06,24,05,54,17.30
2015,06,24,05,55,17.30
2015,06,24,05,56,17.20
2015,06,24,05,57,17.10
2015,06,24,05,58,17.00
2015,06,24,05,59,17.00
2015,06,24,06,00,16.90
2015,06,24,06,01,16.80
2015,06,24,06,02,16.80
2015,06,24,06,03,16.70
2015,06,24,06,04,16.60
2015,06,24,06,05,16.40
2015,06,24,06,06,16.30
2015,06,24,06,07,16.10
2015,06,24,06,08,16.00
2015,06,24,06,09,15.90
2015,06,24,06,10,15.80
2015,06,24,06,11,15.70
2015,06,24,06,12,15.60
2015,06,24,06,13,15.50
2015,06,24,06,14,15.40
2015,06,24,06,15,15.40
2015,06,24,06,16,15.40
2015,06,24,06,17,15.40
2015,06,24,06,18,15.30
2015,06,24,06,19,15.30
2015,06,24,06,20,15.30
2015,06,24,06,21,15.30
2015,06,24,06,22,15.30
2015,06,24,06,23,15.30
2015,06,24,06,24,15.30
2015,06,24,06,25,15.30
2015,06,24,06,26,15.30
2015,06,24,06,27,15.20
2015,06,24,06,28,15.20
2015,06,24,06,29,15.20
2015,06,24,06,30,15.20
2015,06,24,06,31,15.20
2015,06,24,06,32,15.20
2015,06,24,06,33,15.20
2015,06,24,06,34,15.20
2015,06,24,06,35,15.20
2015,06,24,06,36,15.20
2015,06,24,06,37,15.20
2015,06,24,06,38,15.20
2015,06,24,06,39,15.20
2015,06,24,06,40,15.20
2015,06,24,06,41,15.20
2015,06,24,06,42,15.20
2015,06,24,06,43,15.20
2015,06,24,06,44,15.20
2015,06,24,06,45,15.30
2015,06,24,06,46,15.30
2015,06,24,06,47,15.30
2015,06,24,06,48,15.30
2015,06,24,06,49,15.40
2015,06,24,06,50,15.40
2015,06,24,06,51,15.50
2015,06,24,06,52,15.50
2015,06,24,06,53,15.50
2015,06,24,06,54,15.50
2015,06,24,06,55,15.50
2015,06,24,06,56,15.40
2015,06,24,06,57,15.40
2015,06,24,06,58,15.40
2015,06,24,06,59,15.40
2015,06,24,07,00,15.40
2015,06,24,07,01,15.40
2015,06,24,07,02,15.40
2015,06,24,07,03,15.40
2015,06,24,07,04,15.40
2015,06,24,07,05,15.40
2015,06,24,07,06,15.40
2015,06,24,07,07,15.40
2015,06,24,07,08,15.50
2015,06,24,07,09,15.50
2015,06,24,07,10,15.60
2015,06,24,07,11,15.60
2015,06,24,07,12,15.60
2015,06,24,07,13,15.60
2015,06,24,07,14,15.50
2015,06,24,07,15,15.50
2015,06,24,07,16,15.50
2015,06,24,07,17,15.50
2015,06,24,07,18,15.60
2015,06,24,07,19,15.60
2015,06,24,07,20,15.70
2015,06,24,07,21,15.80
2015,06,24,07,22,15.90
2015,06,24,07,23,16.00
2015,06,24,07,24,16.10
2015,06,24,07,25,16.10
2015,06,24,07,26,16.10
2015,06,24,07,27,16.10
2015,06,24,07,28,16.10
2015,06,24,07,29,16.10
2015,06,24,07,30,16.10
2015,06,24,07,31,16.20
2015,06,24,07,32,16.30
2015,06,24,07,33,16.30
2015,06,24,07,34,16.40
2015,06,24,07,35,16.50
2015,06,24,07,36,16.60
2015,06,24,07,37,16.70
2015,06,24,07,38,16.70
2015,06,24,07,39,16.80
2015,06,24,07,40,16.80
2015,06,24,07,41,16.80
2015,06,24,07,42,16.90
2015,06,24,07,43,16.80
2015,06,24,07,44,16.80
2015,06,24,07,45,16.70
2015,06,24,07,46,16.70
2015,06,24,07,47,16.60
2015,06,24,07,48,16.60
2015,06,24,07,49,16.70
2015,06,24,07,50,16.70
2015,06,24,07,51,16.70
2015,06,24,07,52,16.80
2015,06,24,07,53,16.80
2015,06,24,07,54,16.90
2015,06,24,07,55,17.00
2015,06,24,07,56,17.10
2015,06,24,07,57,17.20
2015,06,24,07,58,17.30
2015,06,24,07,59,17.40
2015,06,24,08,00,17.40
2015,06,24,08,01,17.40
2015,06,24,08,02,17.30
2015,06,24,08,03,17.30
2015,06,24,08,04,17.30
2015,06,24,08,05,17.40
2015,06,24,08,06,17.40
2015,06,24,08,07,17.40
2015,06,24,08,08,17.40
2015,06,24,08,09,17.30
2015,06,24,08,10,17.20
2015,06,24,08,11,17.20
2015,06,24,08,12,17.10
2015,06,24,08,13,17.10
2015,06,24,08,14,17.10
2015,06,24,08,15,17.10
2015,06,24,08,16,17.00
2015,06,24,08,17,16.90
2015,06,24,08,18,16.80
2015,06,24,08,19,16.70
2015,06,24,08,20,16.70
2015,06,24,08,21,16.70
2015,06,24,08,22,16.60
2015,06,24,08,23,16.60
2015,06,24,08,24,16.60
2015,06,24,08,25,16.60
2015,06,24,08,26,16.60
2015,06,24,08,27,16.50
2015,06,24,08,28,16.40
2015,06,24,08,29,16.40
2015,06,24,08,30,16.40
2015,06,24,08,31,16.30
2015,06,24,08,32,16.30
2015,06,24,08,33,16.30
2015,06,24,08,34,16.30
2015,06,24,08,35,16.30
2015,06,24,08,36,16.30
2015,06,24,08,37,16.30
2015,06,24,08,38,16.30
2015,06,24,08,39,16.30
2015,06,24,08,40,16.30
2015,06,24,08,41,16.40
2015,06,24,08,42,16.40
2015,06,24,08,43,16.30
2015,06,24,08,44,16.30
2015,06,24,08,45,16.40
2015,06,24,08,46,16.40
2015,06,24,08,47,16.50
2015,06,24,08,48,16.40
2015,06,24,08,49,16.40
2015,06,24,08,50,16.40
2015,06,24,08,51,16.40
2015,06,24,08,52,16.40
2015,06,24,08,53,16.40
2015,06,24,08,54,16.40
2015,06,24,08,55,16.40
2015,06,24,08,56,16.40
2015,06,24,08,57,16.40
2015,06,24,08,58,16.30
2015,06,24,08,59,16.30
2015,06,24,09,00,16.20
2015,06,24,09,01,16.20
2015,06,24,09,02,16.10
2015,06,24,09,03,16.10
2015,06,24,09,04,16.10
2015,06,24,09,05,16.10
2015,06,24,09,06,16.20
2015,06,24,09,07,16.10
2015,06,24,09,08,16.10
2015,06,24,09,09,16.10
2015,06,24,09,10,16.10
2015,06,24,09,11,16.00
2015,06,24,09,12,16.00
2015,06,24,09,13,16.00
2015,06,24,09,14,16.10
2015,06,24,09,15,16.10
2015,06,24,09,16,16.20
2015,06,24,09,17,16.20
2015,06,24,09,18,16.20
2015,06,24,09,19,16.30
2015,06,24,09,20,16.40
2015,06,24,09,21,16.50
2015,06,24,09,22,16.60
2015,06,24,09,23,16.80
2015,06,24,09,24,16.90
2015,06,24,09,25,17.10
2015,06,24,09,26,17.10
2015,06,24,09,27,17.30
2015,06,24,09,28,17.30
2015,06,24,09,29,17.30
2015,06,24,09,30,17.30
2015,06,24,09,31,17.30
2015,06,24,09,32,17.20
2015,06,24,09,33,17.10
2015,06,24,09,34,17.10
2015,06,24,09,35,17.00
2015,06,24,09,36,17.00
2015,06,24,09,37,16.90
2015,06,24,09,38,16.90
2015,06,24,09,39,16.90
2015,06,24,09,40,16.90
2015,06,24,09,41,17.00
2015,06,24,09,42,17.00
2015,06,24,09,43,17.00
2015,06,24,09,44,16.90
2015,06,24,09,45,16.90
2015,06,24,09,46,16.80
2015,06,24,09,47,16.80
2015,06,24,09,48,16.80
2015,06,24,09,49,16.90
2015,06,24,09,50,16.90
2015,06,24,09,51,17.00
2015,06,24,09,52,17.10
2015,06,24,09,53,17.20
2015,06,24,09,54,17.30
2015,06,24,09,55,17.40
2015,06,24,09,56,17.50
2015,06,24,09,57,17.60
2015,06,24,09,58,17.70
2015,06,24,09,59,17.70
2015,06,24,10,00,17.70
2015,06,24,10,01,17.70
2015,06,24,10,02,17.80
2015,06,24,10,03,17.70
2015,06,24,10,04,17.60
2015,06,24,10,05,17.50
2015,06,24,10,06,17.60
2015,06,24,10,07,17.70
2015,06,24,10,08,17.80
2015,06,24,10,09,17.90
2015,06,24,10,10,18.00
2015,06,24,10,11,18.20
2015,06,24,10,12,18.20
2015,06,24,10,13,18.30
2015,06,24,10,14,18.30
2015,06,24,10,15,18.40
2015,06,24,10,16,18.40
2015,06,24,10,17,18.40
2015,06,24,10,18,18.30
2015,06,24,10,19,18.20
2015,06,24,10,20,18.20
2015,06,24,10,21,18.20
2015,06,24,10,22,18.20
2015,06,24,10,23,18.30
2015,06,24,10,24,18.40
2015,06,24,10,25,18.40
2015,06,24,10,26,18.50
2015,06,24,10,27,18.60
2015,06,24,10,28,18.60
2015,06,24,10,29,18.70
2015,06,24,10,30,18.70
2015,06,24,10,31,18.80
2015,06,24,10,32,18.70
2015,06,24,10,33,18.60
2015,06,24,10,34,18.40
2015,06,24,10,35,18.30
2015,06,24,10,36,18.20
2015,06,24,10,37,18.10
2015,06,24,10,38,17.90
2015,06,24,10,39,17.80
2015,06,24,10,40,17.80
2015,06,24,10,41,17.70
2015,06,24,10,42,17.60
2015,06,24,10,43,17.40
2015,06,24,10,44,17.30
2015,06,24,10,45,17.40
2015,06,24,10,46,17.40
2015,06,24,10,47,17.40
2015,06,24,10,48,17.40
2015,06,24,10,49,17.40
2015,06,24,10,50,17.30
2015,06,24,10,51,17.20
2015,06,24,10,52,17.10
2015,06,24,10,53,17.00
2015,06,24,10,54,16.90
2015,06,24,10,55,16.80
2015,06,24,10,56,16.80
2015,06,24,10,57,16.80
2015,06,24,10,58,16.80
2015,06,24,10,59,16.80
2015,06,24,11,00,16.90
2015,06,24,11,01,16.90
2015,06,24,11,02,16.90
2015,06,24,11,03,16.80
2015,06,24,11,04,16.70
2015,06,24,11,05,16.60
2015,06,24,11,06,16.50
2015,06,24,11,07,16.50
2015,06,24,11,08,16.60
2015,06,24,11,09,16.50
2015,06,24,11,10,16.50
2015,06,24,11,11,16.50
2015,06,24,11,12,16.40
2015,06,24,11,13,16.30
2015,06,24,11,14,16.20
2015,06,24,11,15,16.10
2015,06,24,11,16,16.00
2015,06,24,11,17,16.00
2015,06,24,11,18,16.00
2015,06,24,11,19,16.10
2015,06,24,11,20,16.10
2015,06,24,11,21,16.20
2015,06,24,11,22,16.20
2015,06,24,11,23,16.10
2015,06,24,11,24,16.10
2015,06,24,11,25,16.10
2015,06,24,11,26,16.10
2015,06,24,11,27,16.10
2015,06,24,11,28,16.20
2015,06,24,11,29,16.20
2015,06,24,11,30,16.30
2015,06,24,11,31,16.30
2015,06,24,11,32,16.30
2015,06,24,11,33,16.30
2015,06,24,11,34,16.30
2015,06,24,11,35,16.20
2015,06,24,11,36,16.20
2015,06,24,11,37,16.10
2015,06,24,11,38,16.00
2015,06,24,11,39,16.10
2015,06,24,11,40,16.10
2015,06,24,11,41,16.20
2015,06,24,11,42,16.30
2015,06,24,11,43,16.40
2015,06,24,11,44,16.40
2015,06,24,11,45,16.50
2015,06,24,11,46,16.60
2015,06,24,11,47,16.70
2015,06,24,11,48,16.60
2015,06,24,11,49,16.50
2015,06,24,11,50,16.50
2015,06,24,11,51,16.50
2015,06,24,11,52,16.50
2015,06,24,11,53,16.50
2015,06,24,11,54,16.60
2015,06,24,11,55,16.60
2015,06,24,11,56,16.70
2015,06,24,11,57,16.70
2015,06,24,11,58,16.70
2015,06,24,11,59,16.70
2015,06,24,12,00,16.60
2015,06,24,12,01,16.50
2015,06,24,12,02,16.60
2015,06,24,12,03,16.50
2015,06,24,12,04,16.50
2015,06,24,12,05,16.50
2015,06,24,12,06,16.50
2015,06,24,12,07,16.60
2015,06,24,12,08,16.70
2015,06,24,12,09,16.70
2015,06,24,12,10,16.80
2015,06,24,12,11,16.80
2015,06,24,12,12,16.80
2015,06,24,12,13,16.80
2015,06,24,12,14,16.80
2015,06,24,12,15,16.80
2015,06,24,12,16,16.80
2015,06,24,12,17,16.80
2015,06,24,12,18,16.90
2015,06,24,12,19,17.00
2015,06,24,12,20,17.10
2015,06,24,12,21,17.30
2015,06,24,12,22,17.30
2015,06,24,12,23,17.30
2015,06,24,12,24,17.40
2015,06,24,12,25,17.40
2015,06,24,12,26,17.40
2015,06,24,12,27,17.50
2015,06,24,12,28,17.60
2015,06,24,12,29,17.60
2015,06,24,12,30,17.70
2015,06,24,12,31,17.70
2015,06,24,12,32,17.60
2015,06,24,12,33,17.50
2015,06,24,12,34,17.30
2015,06,24,12,35,17.30
2015,06,24,12,36,17.40
2015,06,24,12,37,17.40
2015,06,24,12,38,17.40
2015,06,24,12,39,17.40
2015,06,24,12,40,17.40
2015,06,24,12,41,17.40
2015,06,24,12,42,17.40
2015,06,24,12,43,17.40
2015,06,24,12,44,17.40
2015,06,24,12,45,17.30
2015,06,24,12,46,17.20
2015,06,24,12,47,17.10
2015,06,24,12,48,17.00
2015,06,24,12,49,17.00
2015,06,24,12,50,17.00
2015,06,24,12,51,17.00
2015,06,24,12,52,16.90
2015,06,24,12,53,16.90
2015,06,24,12,54,16.90
2015,06,24,12,55,16.90
2015,06,24,12,56,16.90
2015,06,24,12,57,16.90
2015,06,24,12,58,16.90
2015,06,24,12,59,16.90
2015,06,24,13,00,16.90
2015,06,24,13,01,16.90
2015,06,24,13,02,16.90
2015,06,24,13,03,16.90
2015,06,24,13,04,16.90
2015,06,24,13,05,16.90
2015,06,24,13,06,16.90
2015,06,24,13,07,16.80
2015,06,24,13,08,16.80
2015,06,24,13,09,16.70
2015,06,24,13,10,16.70
2015,06,24,13,11,16.70
2015,06,24,13,12,16.70
2015,06,24,13,13,16.80
2015,06,24,13,14,16.80
2015,06,24,13,15,16.90
2015,06,24,13,16,16.90
2015,06,24,13,17,16.90
2015,06,24,13,18,17.00
2015,06,24,13,19,17.00
2015,06,24,13,20,17.10
2015,06,24,13,21,17.20
2015,06,24,13,22,17.30
2015,06,24,13,23,17.40
2015,06,24,13,24,17.40
2015,06,24,13,25,17.30
2015,06,24,13,26,17.10
2015,06,24,13,27,17.00
2015,06,24,13,28,16.90
2015,06,24,13,29,16.90
2015,06,24,13,30,16.90
2015,06,24,13,31,17.00
2015,06,24,13,32,17.10
2015,06,24,13,33,17.10
2015,06,24,13,34,17.10
2015,06,24,13,35,17.00
2015,06,24,13,36,17.00
2015,06,24,13,37,17.00
2015,06,24,13,38,17.00
2015,06,24,13,39,17.10
2015,06,24,13,40,17.20
2015,06,24,13,41,17.40
2015,06,24,13,42,17.50
2015,06,24,13,43,17.60
2015,06,24,13,44,17.60
2015,06,24,13,45,17.70
2015,06,24,13,46,17.80
2015,06,24,13,47,17.80
2015,06,24,13,48,17.80
2015,06,24,13,49,17.80
2015,06,24,13,50,17.80
2015,06,24,13,51,17.80
2015,06,24,13,52,17.80
2015,06,24,13,53,17.80
2015,06,24,13,54,17.80
2015,06,24,13,55,17.70
2015,06,24,13,56,17.60
2015,06,24,13,57,17.50
2015,06,24,13,58,17.40
2015,06,24,13,59,17.40
2015,06,24,14,00,17.40
2015,06,24,14,01,17.40
2015,06,24,14,02,17.50
2015,06,24,14,03,17.60
2015,06,24,14,04,17.60
2015,06,24,14,05,17.70
2015,06,24,14,06,17.80
2015,06,24,14,07,17.80
2015,06,24,14,08,17.90
2015,06,24,14,09,17.90
2015,06,24,14,10,17.90
2015,06,24,14,11,17.90
2015,06,24,14,12,18.00
2015,06,24,14,13,17.90
2015,06,24,14,14,17.90
2015,06,24,14,15,17.90
2015,06,24,14,16,17.90
2015,06,24,14,17,17.80
2015,06,24,14,18,17.70
2015,06,24,14,19,17.60
2015,06,24,14,20,17.70
2015,06,24,14,21,17.60
2015,06,24,14,22,17.60
2015,06,24,14,23,17.40
2015,06,24,14,24,17.40
2015,06,24,14,25,17.40
2015,06,24,14,26,17.30
2015,06,24,14,27,17.40
2015,06,24,14,28,17.40
2015,06,24,14,29,17.40
2015,06,24,14,30,17.30
2015,06,24,14,31,17.30
2015,06,24,14,32,17.30
2015,06,24,14,33,17.20
2015,06,24,14,34,17.20
2015,06,24,14,35,17.20
2015,06,24,14,36,17.20
2015,06,24,14,37,17.20
2015,06,24,14,38,17.30
2015,06,24,14,39,17.40
2015,06,24,14,40,17.50
2015,06,24,14,41,17.60
2015,06,24,14,42,17.80
2015,06,24,14,43,17.80
2015,06,24,14,44,17.70
2015,06,24,14,45,17.70
2015,06,24,14,46,17.70
2015,06,24,14,47,17.60
2015,06,24,14,48,17.70
2015,06,24,14,49,17.60
2015,06,24,14,50,17.60
2015,06,24,14,51,17.50
2015,06,24,14,52,17.40
2015,06,24,14,53,17.40
2015,06,24,14,54,17.30
2015,06,24,14,55,17.40
2015,06,24,14,56,17.50
2015,06,24,14,57,17.60
2015,06,24,14,58,17.60
2015,06,24,14,59,17.50
2015,06,24,15,00,17.40
2015,06,24,15,01,17.30
2015,06,24,15,02,17.30
2015,06,24,15,03,17.20
2015,06,24,15,04,17.20
2015,06,24,15,05,17.20
2015,06,24,15,06,17.20
2015,06,24,15,07,17.20
2015,06,24,15,08,17.20
2015,06,24,15,09,17.20
2015,06,24,15,10,17.20
2015,06,24,15,11,17.20
2015,06,24,15,12,17.30
2015,06,24,15,13,17.40
2015,06,24,15,14,17.40
2015,06,24,15,15,17.40
2015,06,24,15,16,17.50
2015,06,24,15,17,17.60
2015,06,24,15,18,17.60
2015,06,24,15,19,17.70
2015,06,24,15,20,17.70
2015,06,24,15,21,17.70
2015,06,24,15,22,17.70
2015,06,24,15,23,17.80
2015,06,24,15,24,17.80
2015,06,24,15,25,17.90
2015,06,24,15,26,18.10
2015,06,24,15,27,18.20
2015,06,24,15,28,18.30
2015,06,24,15,29,18.30
2015,06,24,15,30,18.30
2015,06,24,15,31,18.30
2015,06,24,15,32,18.40
2015,06,24,15,33,18.50
2015,06,24,15,34,18.50
2015,06,24,15,35,18.50
2015,06,24,15,36,18.40
2015,06,24,15,37,18.50
2015,06,24,15,38,18.50
2015,06,24,15,39,18.50
2015,06,24,15,40,18.50
2015,06,24,15,41,18.50
2015,06,24,15,42,18.40
2015,06,24,15,43,18.30
2015,06,24,15,44,18.30
2015,06,24,15,45,18.20
2015,06,24,15,46,18.20
2015,06,24,15,47,18.00
2015,06,24,15,48,17.80
2015,06,24,15,49,17.60
2015,06,24,15,50,17.50
2015,06,24,15,51,17.50
2015,06,24,15,52,17.50
2015,06,24,15,53,17.40
2015,06,24,15,54,17.40
2015,06,24,15,55,17.40
2015,06,24,15,56,17.40
2015,06,24,15,57,17.50
2015,06,24,15,58,17.50
2015,06,24,15,59,17.60
2015,06,24,16,00,17.70
2015,06,24,16,01,17.80
2015,06,24,16,02,17.80
2015,06,24,16,03,17.90
2015,06,24,16,04,18.00
2015,06,24,16,05,18.10
2015,06,24,16,06,18.20
2015,06,24,16,07,18.30
2015,06,24,16,08,18.40
2015,06,24,16,09,18.40
2015,06,24,16,10,18.50
2015,06,24,16,11,18.50
2015,06,24,16,12,18.60
2015,06,24,16,13,18.70
2015,06,24,16,14,18.80
2015,06,24,16,15,19.00
2015,06,24,16,16,19.10
2015,06,24,16,17,19.20
2015,06,24,16,18,19.30
2015,06,24,16,19,19.40
2015,06,24,16,20,19.40
2015,06,24,16,21,19.50
2015,06,24,16,22,19.60
2015,06,24,16,23,19.70
2015,06,24,16,24,19.80
2015,06,24,16,25,19.90
2015,06,24,16,26,19.90
2015,06,24,16,27,19.90
2015,06,24,16,28,19.90
2015,06,24,16,29,19.80
2015,06,24,16,30,19.80
2015,06,24,16,31,19.70
2015,06,24,16,32,19.70
2015,06,24,16,33,19.70
2015,06,24,16,34,19.70
2015,06,24,16,35,19.60
2015,06,24,16,36,19.60
2015,06,24,16,37,19.60
2015,06,24,16,38,19.60
2015,06,24,16,39,19.70
2015,06,24,16,40,19.70
2015,06,24,16,41,19.80
2015,06,24,16,42,19.80
2015,06,24,16,43,19.60
2015,06,24,16,44,19.50
2015,06,24,16,45,19.50
2015,06,24,16,46,19.40
2015,06,24,16,47,19.30
2015,06,24,16,48,19.20
2015,06,24,16,49,19.20
2015,06,24,16,50,19.20
2015,06,24,16,51,19.20
2015,06,24,16,52,19.10
2015,06,24,16,53,19.10
2015,06,24,16,54,19.10
2015,06,24,16,55,19.20
2015,06,24,16,56,19.20
2015,06,24,16,57,19.30
2015,06,24,16,58,19.40
2015,06,24,16,59,19.40
2015,06,24,17,00,19.50
2015,06,24,17,01,19.60
2015,06,24,17,02,19.60
2015,06,24,17,03,19.60
2015,06,24,17,04,19.60
2015,06,24,17,05,19.70
2015,06,24,17,06,19.70
2015,06,24,17,07,19.70
2015,06,24,17,08,19.80
2015,06,24,17,09,19.80
2015,06,24,17,10,19.80
2015,06,24,17,11,19.80
2015,06,24,17,12,19.80
2015,06,24,17,13,19.70
2015,06,24,17,14,19.80
2015,06,24,17,15,19.80
2015,06,24,17,16,19.80
2015,06,24,17,17,19.80
2015,06,24,17,18,19.80
2015,06,24,17,19,19.80